Regional Weather Roundup
Issued by NWS Little Rock, AR

Home | Current Version | Previous Version | Graphics & Text | Print | Product List | Glossary On
Versions: 1 2 3 4 5 6 7 8 9 10 11 12 13 14 15 16 17 18 19 20 21 22 23 24 25 26 27 28 29 30 31 32
000
ASUS44 KLZK 251812
RWRLZK

WEATHER ROUNDUP FOR ARKANSAS
NATIONAL WEATHER SERVICE LITTLE ROCK AR
1200 PM CST SAT FEB 25 2017

NOTE: "FAIR" INDICATES FEW OR NO CLOUDS BELOW 12,000 FEET WITH NO
SIGNIFICANT WEATHER AND/OR OBSTRUCTIONS TO VISIBILITY.

ARZ001-003-010-029-251900-
NORTHWEST ARKANSAS

CITY           SKY/WX    TMP DP  RH WIND       PRES   REMARKS
FAYETTEVILLE   SUNNY     38  17  42 N8        30.20S
6HR MIN TEMP:  21; 6HR MAX TEMP:  39;

FORT SMITH     SUNNY     44  15  31 N7        30.24F
6HR MIN TEMP:  29; 6HR MAX TEMP:  45;

HARRISON       SUNNY     40  16  37 NW8G18    30.16R
6HR MIN TEMP:  23; 6HR MAX TEMP:  40;

BENTONVILLE    SUNNY     37  16  41 NW5       30.21S
6HR MIN TEMP:  23; 6HR MAX TEMP:  37;

ROGERS         SUNNY     37  15  40 N6        30.20S
6HR MIN TEMP:  22; 6HR MAX TEMP:  38;

SILOAM SPGS    SUNNY     37  16  41 N8        30.21F
6HR MIN TEMP:  21; 6HR MAX TEMP:  37;

HIGHFILL       SUNNY     40  16  37 N9        30.20S
6HR MIN TEMP:  21; 6HR MAX TEMP:  40;

SPRINGDALE     SUNNY     37  16  41 NW5       30.21S
$$

ARZ004-005-016-251900-
NORTH CENTRAL ARKANSAS

CITY           SKY/WX    TMP DP  RH WIND       PRES   REMARKS
BATESVILLE     SUNNY     43  19  39 W7        30.17S
6HR MIN TEMP:  30; 6HR MAX TEMP:  43;

FLIPPIN        SUNNY     39  16  38 NW13G20   30.15S
6HR MIN TEMP:  27; 6HR MAX TEMP:  41;

MTN HOME       SUNNY     40  16  37 N13G20    30.15R
6HR MIN TEMP:  25; 6HR MAX TEMP:  40;

$$

ARZ040-041-251900-
WEST CENTRAL ARKANSAS

CITY           SKY/WX    TMP DP  RH WIND       PRES   REMARKS
MENA           SUNNY     46  18  31 NW6       30.20S
MOUNT IDA      SUNNY     47  13  25 NE6       30.17S
6HR MIN TEMP:  31; 6HR MAX TEMP:  47;

$$

ARZ009-017-025-026-028-251900-
NORTHEAST ARKANSAS

CITY           SKY/WX    TMP DP  RH WIND       PRES   REMARKS
CORNING        FAIR      39  18  41 NW8       30.14F
JONESBORO      SUNNY     40  21  46 N10       30.15R
6HR MIN TEMP:  32; 6HR MAX TEMP:  41;

NEWPORT        SUNNY     41  20  43 NW13      30.17S
6HR MIN TEMP:  30; 6HR MAX TEMP:  41;

WALNUT RIDGE   SUNNY     41  18  38 NW10G17   30.15S
6HR MIN TEMP:  30; 6HR MAX TEMP:  41;

BLYTHEVILLE    SUNNY     43  23  45 NW9G17    30.14S
6HR MIN TEMP:  32; 6HR MAX TEMP:  44;

$$

ARZ022-023-033-042-044-251900-
CENTRAL ARKANSAS

CITY           SKY/WX    TMP DP  RH WIND       PRES   REMARKS
LITTLE ROCK    SUNNY     45  20  36 NW8       30.20R
6HR MIN TEMP:  32; 6HR MAX TEMP:  45;

N LITTLE ROCK    N/A     44  22  41 N6        30.20S
6HR MIN TEMP:  32; 6HR MAX TEMP:  44;

JACKSONVILLE   SUNNY     46  19  34 NW7       30.18R
6HR MIN TEMP:  33; 6HR MAX TEMP:  46;

SEARCY         SUNNY     45  19  35 VRB6      30.19S
6HR MIN TEMP:  32; 6HR MAX TEMP:  45;

HOT SPRINGS    SUNNY     48  18  30 VRB5      30.19S
6HR MIN TEMP:  33; 6HR MAX TEMP:  48;

RUSSELLVILLE   SUNNY     43  20  39 W15       30.20R
6HR MIN TEMP:  32; 6HR MAX TEMP:  44;

CLINTON        FAIR      45  14  29 N9G17     30.17F
$$

ARZ036-251900-
EAST ARKANSAS

CITY           SKY/WX    TMP DP  RH WIND       PRES   REMARKS
WEST MEMPHIS   SUNNY     41  26  55 NW7       30.15S
6HR MIN TEMP:  34; 6HR MAX TEMP:  41;

$$

ARZ050-053-066-070-073-251900-
SOUTHWEST ARKANSAS

CITY           SKY/WX    TMP DP  RH WIND       PRES   REMARKS
ARKADELPHIA    FAIR      46  23  40 VRB3      30.22F
6HR MIN TEMP:  32; 6HR MAX TEMP:  47;

CAMDEN         SUNNY     52  18  25 NE3       30.22S
TEXARKANA      SUNNY     47  20  34 VRB5      30.24R
6HR MIN TEMP:  33; 6HR MAX TEMP:  47;

EL DORADO      SUNNY     50  21  32 MISG      30.21S
6HR MIN TEMP:  35; 6HR MAX TEMP:  50;

DE QUEEN       SUNNY     49  19  30 MISG      30.22S
6HR MIN TEMP:  29; 6HR MAX TEMP:  49;

$$

ARZ056-057-069-251900-
SOUTHEAST ARKANSAS

CITY           SKY/WX    TMP DP  RH WIND       PRES   REMARKS
PINE BLUFF     SUNNY     46  23  40 MISG      30.20S
6HR MIN TEMP:  34; 6HR MAX TEMP:  46;

STUTTGART      SUNNY     45  18  33 NW9       30.21R
6HR MIN TEMP:  34; 6HR MAX TEMP:  45;

MONTICELLO     SUNNY     50  20  30 VRB7      30.18S
6HR MIN TEMP:  37; 6HR MAX TEMP:  50;


$$






USA.gov is the U.S. government's official web portal to all federal, state and local government web resources and services.